RH
44 44 44 46 47 47 50 50 50 47 44 39 34 30 28 28 27 19 12 11 9 6 7 8 10 11 13 16 17 17 16 15 16 16 16 15 15 15 14 14 14 13 12
45 44 44 46 47 50 51 50 50 48 45 40 35 30 29 29 26 17 9 7 7 7 8 10 11 13 16 17 17 16 18 19 19 19 19 18 17 17 16 15 15 15 15
48 46 46 47 49 53 51 51 51 50 46 41 36 31 30 31 29 24 13 7 8 10 10 12 14 17 18 18 18 18 20 21 22 22 22 20 19 17 16 14 14 14 14
50 50 53 53 53 52 54 54 50 47 46 42 37 32 33 32 28 26 23 14 9 11 14 17 19 20 20 20 21 21 22 23 24 24 24 23 21 19 17 16 14 14 14
50 49 49 51 55 59 57 52 48 48 49 44 36 34 35 34 34 33 30 24 19 15 12 13 16 20 22 22 24 24 25 24 23 23 23 22 20 19 17 16 15 14 14
58 59 58 57 59 63 60 53 49 52 52 44 37 37 38 40 42 42 42 42 42 42 39 34 28 23 18 15 14 14 14 14 14 14 15 14 14 14 14 14 14 14 15
56 61 61 63 67 66 62 56 53 56 56 44 40 41 43 45 44 44 44 44 43 43 45 45 42 35 29 25 22 20 19 18 18 17 17 16 16 15 15 16 15 15 15
59 55 55 61 67 68 65 58 57 64 56 45 43 44 46 47 48 46 46 46 46 46 45 44 44 41 35 27 24 22 20 19 18 18 17 16 16 14 14 13 12 12 12
56 52 54 64 72 72 68 64 64 74 53 48 48 49 50 50 48 47 46 48 49 48 48 47 43 37 28 22 20 19 19 18 16 14 13 12 13 14 14 14 13 12 12
61 56 54 62 78 78 71 74 73 90 56 51 52 53 54 54 52 50 51 53 54 53 53 49 40 27 21 20 20 18 15 12 12 14 15 15 14 13 12 11 11 11 11
66 58 56 68 78 82 80 99 84 97 66 55 54 57 58 57 54 54 55 57 56 57 55 46 28 23 21 18 14 12 13 15 16 15 14 13 12 12 10 10 8 8 7
65 62 60 69 82 91 89 99 97 93 86 58 56 57 61 60 58 58 59 59 58 58 57 32 24 21 16 13 14 16 16 16 15 14 13 10 9 8 7 6 4 4 3
66 62 64 71 84 93 88 98 97 93 94 65 59 58 63 64 63 64 63 62 59 57 54 27 21 15 14 16 17 16 15 14 12 10 9 8 7 6 4 3 2 2 2
73 65 75 84 86 93 98 100 87 99 98 68 62 61 64 65 68 66 64 64 63 60 38 23 15 15 17 17 16 13 11 9 8 7 6 4 3 2 2 2 2 3 3
76 65 78 91 94 96 98 98 77 100 96 72 65 66 65 70 70 68 68 68 67 50 24 16 16 18 17 14 12 10 8 7 6 4 3 2 2 2 3 4 5 6 6
75 68 83 90 99 100 96 95 95 100 90 69 71 70 68 70 74 73 73 73 53 25 17 17 18 16 13 10 8 7 6 4 3 2 2 3 4 6 8 9 14 24 28
72 77 82 92 97 95 100 99 100 98 91 69 74 72 73 80 78 76 80 58 26 17 18 19 15 11 9 7 6 4 3 3 3 4 5 7 11 22 28 33 34 34 35
77 80 80 98 90 100 98 98 100 97 80 70 75 74 85 87 81 84 63 27 17 18 18 15 11 8 6 5 3 3 3 4 5 7 12 29 37 37 37 38 38 39 40
79 77 86 97 100 100 100 100 100 99 73 77 83 84 94 87 89 73 26 17 18 15 12 9 8 5 3 3 3 4 4 5 12 32 41 40 42 42 43 43 44 44 43
75 86 97 100 100 99 99 100 100 94 76 84 90 98 92 94 79 25 17 18 15 11 8 6 4 3 3 4 4 4 7 25 35 40 41 39 44 42 43 46 50 47 46
99 100 97 100 100 100 100 100 94 76 78 95 98 97 99 65 22 18 18 14 10 8 5 3 3 3 4 5 5 14 33 34 32 40 40 39 45 45 52 54 54 54 57
100 99 100 100 100 100 98 96 86 79 98 99 98 99 37 18 18 16 13 9 6 4 3 4 4 5 6 6 23 38 34 32 27 40 36 36 44 39 49 48 50 56 58
100 100 100 100 100 98 96 92 98 99 98 100 81 25 17 18 16 12 8 5 3 4 5 6 6 7 8 32 41 35 39 38 34 43 50 41 53 44 51 54 58 61 66
100 100 98 99 96 99 99 99 99 100 94 37 20 18 18 15 10 7 5 3 4 5 5 6 7 12 36 44 41 42 41 40 43 55 73 52 57 52 56 60 67 66 69
99 99 94 98 98 98 99 100 91 35 24 18 19 17 13 9 6 4 3 4 5 6 7 9 18 47 50 50 55 46 51 53 50 54 76 73 61 57 55 53 60 66 70
96 97 96 90 100 99 75 32 26 19 19 18 16 11 8 6 4 4 4 5 5 7 9 22 52 55 57 58 57 62 68 66 68 52 77 68 62 72 45 48 52 64 68
Wind_Speed
19 18 17 15 15 14 14 15 16 16 17 19 20 20 20 19 19 19 19 18 17 16 14 14 14 15 16 16 17 18 18 17 17 18 20 20 20 22 22 22 24 24 24
21 20 19 19 17 16 16 17 17 18 18 18 19 20 21 19 18 18 18 17 16 16 15 15 15 17 18 19 20 20 20 21 21 21 22 23 23 24 25 25 27 28 27
22 20 21 21 19 18 17 17 18 19 20 20 20 20 21 19 18 17 17 17 16 16 16 17 17 19 20 21 22 23 24 25 25 25 26 26 27 27 27 28 28 30 31
21 20 20 19 19 18 18 19 21 22 22 22 21 19 19 18 17 16 15 16 16 17 18 19 20 22 23 24 25 27 28 29 29 30 31 31 31 31 32 32 32 32 33
19 18 20 20 19 19 20 21 23 24 23 22 20 18 17 16 14 14 15 15 16 18 20 22 23 24 27 29 30 31 32 33 34 35 36 36 36 37 37 37 37 37 37
20 20 21 22 21 22 23 24 25 24 22 20 18 16 15 15 14 14 15 17 18 20 22 24 26 28 30 31 32 34 35 36 37 37 39 40 40 40 40 40 40 40 40
23 23 25 25 25 24 23 25 24 23 21 19 17 16 15 15 16 16 18 20 21 23 24 27 29 30 32 33 34 35 37 37 38 38 39 40 41 41 41 41 41 42 42
25 25 26 27 27 24 24 24 23 21 20 19 17 17 16 16 18 19 21 23 25 26 28 29 31 33 34 35 36 37 39 39 39 39 40 40 41 42 43 43 44 44 45
25 26 26 28 27 25 23 22 20 21 20 19 18 18 18 19 21 22 24 26 28 29 31 32 34 35 36 37 37 38 39 38 38 39 40 41 43 44 46 47 48 50 51
26 26 27 28 27 26 26 20 19 20 21 20 20 20 20 21 22 25 27 29 31 32 33 35 37 38 38 39 39 38 38 38 39 41 43 45 47 49 51 52 54 56 57
30 29 29 28 28 28 27 24 20 22 23 23 22 22 23 24 26 27 30 33 34 35 36 37 39 40 40 39 38 38 40 41 43 45 47 49 51 54 55 57 59 61 62
34 30 31 30 31 30 28 28 22 21 27 26 25 25 26 27 29 31 33 35 37 35 37 37 39 40 39 39 40 42 45 46 48 50 52 54 56 58 60 62 64 65 67
37 32 31 32 34 33 29 27 28 22 29 29 27 28 29 30 32 35 38 41 43 40 40 38 39 39 40 42 43 46 49 51 52 54 56 59 62 64 67 68 68 69 67
38 32 33 33 36 35 28 36 28 30 30 29 30 31 31 32 35 38 42 46 47 46 43 40 37 39 42 44 47 49 52 53 55 58 60 62 64 65 65 67 64 63 60
38 34 35 36 38 32 30 35 34 38 27 29 32 32 33 35 38 42 45 49 50 51 48 41 41 42 45 47 50 53 54 57 60 61 62 61 60 60 59 58 56 56 54
39 35 36 37 37 35 35 32 37 38 25 30 33 33 35 37 41 45 49 50 49 50 51 48 47 48 48 49 52 55 58 61 62 60 58 56 54 54 53 50 49 46 45
38 38 37 38 37 37 32 32 35 28 30 33 33 35 36 40 45 48 51 49 48 48 50 51 51 51 51 52 55 56 58 58 55 51 51 48 46 46 45 44 44 43 40
36 36 36 37 36 36 44 37 31 31 31 34 35 36 40 45 48 52 49 48 47 47 50 53 53 52 53 55 57 57 54 51 49 46 44 40 40 42 41 41 42 43 42
38 35 36 36 38 38 29 30 33 30 33 34 37 40 45 48 51 50 48 47 47 48 49 52 54 55 56 53 54 52 49 45 42 38 34 36 38 39 39 40 43 43 41
35 36 34 39 37 45 27 31 32 33 33 37 42 43 45 50 50 48 47 47 48 48 49 52 55 56 54 51 48 47 42 39 36 34 33 36 36 37 38 40 42 41 42
33 37 37 37 41 28 30 26 29 32 36 42 43 44 49 47 46 46 47 48 49 49 52 53 53 53 49 44 42 41 39 37 35 32 33 36 33 35 33 36 37 39 40
35 37 36 39 30 29 30 27 29 34 42 42 44 47 44 44 44 45 46 48 50 50 50 51 51 48 43 40 39 38 38 37 36 31 34 33 32 35 35 37 36 36 38
40 43 39 28 32 23 19 27 34 39 40 43 44 42 41 43 44 45 46 48 48 46 45 47 47 42 40 38 38 38 36 37 37 35 37 39 37 37 34 34 33 33 34
37 32 24 18 14 17 27 30 33 38 41 40 40 40 41 42 43 45 47 47 47 45 43 41 38 36 37 36 36 37 36 39 38 37 35 42 38 38 37 35 31 31 30
10 8 11 14 20 22 26 32 36 36 37 38 39 41 42 42 43 44 46 47 45 41 39 35 32 32 34 33 34 36 36 39 39 38 32 39 38 40 40 37 30 27 28
6 8 13 17 21 27 28 31 33 34 35 37 39 39 40 43 43 44 44 45 43 38 33 27 27 28 29 29 30 34 37 39 39 36 33 42 43 43 46 43 35 31 28
Wind_Direction
263 266 269 272 278 287 293 302 308 314 317 320 320 316 315 316 315 313 307 300 295 290 286 282 282 281 282 281 281 282 284 282 279 279 279 278 275 274 273 271 269 268 267
260 263 264 266 272 277 283 292 300 305 307 309 312 310 310 313 314 313 309 304 298 292 285 280 277 277 278 280 280 280 281 282 282 281 281 281 281 278 275 273 273 271 268
260 261 261 263 267 269 279 287 294 298 300 300 299 300 303 309 310 310 309 304 299 294 289 283 280 278 278 278 278 278 280 282 282 283 282 281 281 281 280 276 273 273 272
261 259 258 262 265 275 282 290 296 297 293 291 292 296 301 305 308 309 308 304 302 296 291 288 286 284 283 280 279 279 281 281 281 281 281 282 282 280 279 278 276 274 272
257 259 261 264 269 277 285 290 292 291 289 288 289 293 296 300 306 310 311 310 307 302 296 293 290 286 284 285 285 284 283 282 282 283 284 283 282 281 281 279 277 275 274
257 258 261 264 270 276 282 287 286 285 283 282 283 286 290 297 306 313 316 316 315 312 306 301 296 294 292 289 288 288 287 286 285 285 285 284 283 282 281 279 278 275 274
259 260 263 264 269 272 280 284 281 278 276 276 276 279 286 295 304 311 315 316 314 312 309 305 301 297 294 292 291 290 288 288 289 288 286 285 284 283 281 278 276 275 274
259 262 263 266 269 271 277 279 276 272 269 268 270 276 284 292 301 307 312 313 312 312 311 307 302 298 296 294 293 292 291 291 290 288 287 286 285 283 282 281 280 278 276
258 266 268 264 268 270 274 278 275 269 262 264 268 274 282 290 299 306 310 311 310 309 309 307 303 300 297 296 295 293 291 290 289 288 287 285 284 283 282 282 281 280 278
255 262 267 261 263 270 276 277 279 267 261 262 266 274 282 291 299 304 308 311 311 310 310 307 304 301 299 297 294 292 290 289 288 287 287 287 286 285 284 283 282 280 279
250 257 266 258 260 266 273 269 277 269 264 263 267 274 281 288 295 302 307 310 310 309 310 307 304 301 299 296 294 293 292 291 290 288 288 287 286 285 284 283 282 281 279
252 258 262 258 256 259 269 260 269 264 268 265 268 275 282 289 295 300 305 307 307 306 306 305 303 300 297 295 295 294 293 292 292 291 291 289 288 287 285 284 283 282 280
250 255 262 262 255 257 267 264 275 272 266 263 268 275 281 288 295 301 306 309 307 305 306 304 302 298 297 296 297 296 296 296 295 294 293 293 293 292 291 290 288 286 285
244 250 258 259 255 256 258 262 273 260 258 261 267 274 282 290 297 303 307 309 307 306 306 304 299 296 297 298 297 297 297 298 297 297 296 294 293 291 290 288 287 286 285
241 247 256 250 250 256 263 264 263 254 254 259 267 277 285 292 300 305 307 308 306 307 305 305 302 301 301 301 301 299 300 299 298 297 297 296 294 291 289 287 287 287 287
239 247 249 245 244 251 263 262 260 256 257 262 271 281 287 295 301 304 307 307 307 306 305 306 306 305 304 303 301 301 301 300 300 300 298 296 294 291 289 289 288 288 287
238 244 246 238 246 255 249 264 254 261 260 265 275 283 289 296 303 305 307 305 305 304 304 304 306 306 305 303 302 302 302 301 300 299 297 296 294 290 290 288 287 286 284
237 240 242 234 246 253 271 251 264 257 261 268 278 286 291 297 302 304 303 303 302 303 304 303 304 304 304 304 304 304 303 303 301 300 297 294 288 287 287 287 286 284 283
237 243 237 234 234 254 245 249 258 257 263 273 279 284 289 296 300 301 301 301 302 303 302 302 304 304 303 307 306 304 302 301 300 296 294 290 287 288 288 286 285 284 284
236 234 226 232 248 246 237 245 249 259 268 276 283 289 293 297 300 300 301 302 302 302 302 303 302 303 308 309 305 302 301 298 298 299 297 293 291 290 288 285 285 286 285
225 223 235 234 238 240 239 244 258 268 275 283 288 293 295 298 299 300 301 302 302 303 303 303 305 308 308 305 301 299 300 303 303 303 300 295 295 290 287 286 288 288 287
220 216 224 234 235 231 246 251 266 274 282 286 293 296 297 298 299 300 301 301 303 303 303 308 307 306 304 303 302 303 304 305 305 310 303 302 299 294 293 290 290 289 287
217 222 219 221 227 230 251 262 273 281 289 291 295 295 296 298 299 299 300 300 301 304 308 306 305 305 304 305 305 304 307 307 312 317 313 308 308 303 300 296 296 293 288
225 224 217 223 257 261 266 277 286 288 292 294 294 296 297 297 298 299 300 302 307 311 306 303 302 301 300 301 303 307 313 311 315 317 318 307 308 306 304 303 303 296 291
186 219 260 276 267 278 287 287 289 292 293 295 297 297 298 299 299 300 303 307 308 307 304 304 302 300 300 304 307 309 312 312 314 314 321 306 310 308 306 308 306 299 290
221 258 269 278 285 281 288 290 292 291 294 295 294 296 297 299 302 304 306 306 306 304 304 300 296 296 299 304 308 309 309 311 313 314 324 311 313 315 312 315 316 319 309